Flag for Germany Weather past 2 weeks in Bergisch Gladbach, North Rhine-Westphalia, Germany

Now
37 °F

Drizzle. Fog.


Feels Like: 31 °F
Forecast: 36 / 41 °F
Wind: 9 mph from South

Location: Koeln / Bonn

Current Time: Jan 26, 2015 at 3:43:23 PM

Latest Report: Jan 26, 2015 at 3:20 PM


Visibility: 2 mi

Pressure: 30.07 "Hg

Humidity: 100%

Dew point: 37 °F

Location of Bergisch GladbachLocation

Historic Weather in Bergisch Gladbach — Graph

°F

Bergisch Gladbach temperature yesterday

Maximum temperature yesterday: 37 °F (at 1:50 PM)
Minimum temperature yesterday: 27 °F (at 3:20 AM)
Average temperature yesterday: 33 °F

Past Weeks' High & Low Weather Summary

 TemperatureHumidityPressure
High54 °F (Jan 13, 12:20 PM)100% (Jan 14, 4:20 AM)30.42 "Hg (Jan 14, 4:20 AM)
Low27 °F (Jan 19, 7:20 AM)54% (Jan 13, 12:20 PM)29.50 "Hg (Jan 15, 2:50 PM)
Average37 °F82%29.98 "Hg
* Reported Jan 11 2:20 PM — Jan 26 2:50 PM, Bergisch Gladbach, Weather by CustomWeather, © 2014

Note: Actual official high and low records may vary slightly from our data, if they occured in-between our weather recording intervals... More about our weather records

Advertising

Bergisch Gladbach weather history for previous 24 hours

 ConditionsComfort  
Time TempWeatherWind HumidityBarometerVisibility
2:50 PM
Jan 26
37 °FDrizzle. Fog.10 mph100%30.07 "Hg2 mi
2:20 PM37 °FDrizzle. Fog.10 mph100%30.07 "Hg2 mi
1:50 PM37 °FDrizzle. Fog.9 mph100%30.09 "Hg2 mi
1:20 PM37 °FDrizzle. More clouds than sun.9 mph100%30.09 "Hg2 mi
12:50 PM37 °FDrizzle. More clouds than sun.10 mph93%30.12 "HgN/A
12:20 PM37 °FDrizzle. More clouds than sun.10 mph93%30.12 "Hg4 mi
11:50 AM37 °FDrizzle. Fog.10 mph100%30.15 "Hg3 mi
11:20 AM37 °FDrizzle. Fog.9 mph100%30.15 "Hg2 mi
10:50 AM36 °FDrizzle. Fog.8 mph100%30.18 "Hg1 mi
10:20 AM36 °FDrizzle. Fog.8 mph100%30.18 "Hg3 mi
9:50 AM36 °FDrizzle. Low clouds.7 mph93%30.18 "Hg4 mi
9:20 AM36 °FDrizzle. Low clouds.7 mph93%30.18 "Hg5 mi
8:50 AM36 °FDrizzle. Low clouds.7 mph93%30.21 "HgN/A
8:20 AM36 °FDrizzle. Low clouds.7 mph93%30.21 "HgN/A
7:50 AM36 °FDrizzle. Low clouds.9 mph93%30.21 "HgN/A
7:20 AM36 °FDrizzle. Low clouds.9 mph93%30.21 "HgN/A
6:50 AM36 °FPassing clouds.8 mph93%30.21 "Hg6 mi
6:20 AM36 °FPassing clouds.6 mph100%30.21 "Hg6 mi
5:50 AM36 °FLight rain. Passing clouds.7 mph100%30.24 "Hg5 mi
5:20 AM36 °FPassing clouds.7 mph100%30.24 "Hg4 mi
4:50 AM36 °FPassing clouds.7 mph100%30.27 "Hg4 mi
4:20 AM34 °FPassing clouds.7 mph100%30.27 "Hg4 mi
3:50 AM36 °FLight rain. Passing clouds.6 mph100%30.30 "Hg4 mi
3:20 AM36 °FPassing clouds.7 mph93%30.30 "Hg5 mi
2:50 AM36 °FLight rain. Passing clouds.7 mph100%30.30 "HgN/A
2:20 AM36 °FLight rain. Passing clouds.7 mph100%30.30 "HgN/A
1:50 AM36 °FLight rain. Passing clouds.6 mph100%30.33 "HgN/A
1:20 AM36 °FLight rain. Passing clouds.7 mph100%30.33 "HgN/A
12:50 AM36 °FLight rain. Passing clouds.6 mph100%30.33 "HgN/A
12:20 AM36 °FLight rain. Passing clouds.7 mph100%30.36 "HgN/A
11:50 PM
Jan 25
36 °FLight rain. Passing clouds.5 mph93%30.36 "HgN/A
11:20 PM36 °FLight rain. Passing clouds.3 mph100%30.36 "Hg6 mi
10:20 PM36 °FLight rain. Passing clouds.5 mph100%30.36 "Hg4 mi
9:50 PM36 °FLight rain. Passing clouds.3 mph100%30.36 "Hg4 mi
9:20 PM36 °FPassing clouds.3 mph100%30.36 "Hg4 mi
8:50 PM36 °FLight rain. Fog.3 mph100%30.36 "Hg3 mi
8:20 PM36 °FLight rain. Fog.3 mph100%30.39 "Hg3 mi
7:50 PM36 °FLight rain. Fog.5 mph100%30.39 "Hg2 mi
7:20 PM36 °FLight rain. Fog.5 mph100%30.39 "Hg2 mi
6:50 PM36 °FDrizzle. Fog.2 mph93%30.39 "Hg2 mi
6:20 PM36 °FDrizzle. Fog.3 mph100%30.39 "Hg2 mi
5:50 PM36 °FDrizzle. Fog.6 mph100%30.39 "Hg2 mi
5:20 PM36 °FDrizzle. Fog.2 mph100%30.39 "Hg2 mi
4:50 PM36 °FDrizzle. Fog.5 mph100%30.39 "Hg2 mi
4:20 PM36 °FDrizzle. Fog.3 mph100%30.39 "Hg3 mi
3:50 PM36 °FDrizzle. Fog.1 mph100%30.39 "Hg3 mi
3:20 PM36 °FDrizzle. Fog.2 mph100%30.39 "Hg3 mi
Weather by CustomWeather, © 2014

See weather overviewHow to use our weather pages